Dewpoint
67 68 70 71 71 70 70 70 69 68 68 68 67 67 67 67 67 66 66 66 66 65 65 66 67 67 66 65 65 66 65 65 65 64 62 61 62 62 62 62 62 58 62
68 67 70 70 70 70 70 69 68 67 67 67 67 67 67 66 66 66 66 66 67 67 67 66 67 67 65 64 64 65 64 65 65 64 62 61 62 62 62 62 62 59 62
68 67 68 70 70 70 69 68 68 67 66 66 67 67 66 66 66 66 66 66 68 67 67 66 67 67 63 63 64 64 63 63 63 63 62 55 57 62 62 62 62 61 61
68 67 67 69 69 69 68 68 67 66 67 67 67 67 66 66 66 66 65 65 68 68 67 66 68 64 63 64 64 63 63 62 62 62 55 55 55 61 61 62 62 62 61
67 67 67 69 68 68 67 67 66 66 67 67 67 66 67 66 65 65 64 64 65 66 66 66 64 62 63 64 64 63 62 61 61 57 54 56 55 58 60 60 59 61 61
67 68 67 68 68 67 67 67 66 66 66 66 66 66 66 66 65 64 64 64 64 64 62 61 61 61 63 63 62 61 60 59 59 53 54 56 55 58 58 58 59 59 59
66 67 68 67 67 67 67 67 66 66 66 66 66 66 66 65 65 64 64 64 63 63 63 62 61 62 62 61 61 60 59 58 52 52 52 53 55 57 57 56 56 57 57
64 66 66 67 67 65 66 67 66 66 66 66 65 65 66 65 65 64 64 63 63 63 62 61 61 62 62 61 58 58 57 57 50 50 51 52 56 56 55 54 54 54 55
62 61 60 60 61 61 62 66 66 66 66 65 66 66 66 65 64 63 63 63 63 62 62 62 62 61 59 58 57 57 57 55 49 50 49 50 55 54 54 53 52 52 52
62 61 60 59 58 59 61 65 66 66 66 65 65 65 65 64 64 64 62 63 63 63 62 60 61 59 55 55 54 52 52 53 46 47 49 50 54 54 53 52 51 51 52
59 58 59 57 57 58 63 64 65 66 65 64 64 64 62 58 57 56 62 62 61 61 59 57 56 55 54 52 49 49 50 46 45 46 46 57 53 52 52 52 50 50 50
58 57 57 57 54 52 53 59 64 64 62 62 62 61 58 59 58 56 60 60 59 58 57 53 50 47 44 37 37 41 37 39 36 37 42 53 48 51 50 51 50 49 49
57 54 52 53 56 59 59 61 62 61 60 61 61 60 59 60 59 58 56 52 51 49 41 42 40 39 41 38 38 39 38 36 35 34 37 49 50 47 49 49 49 48 48
55 52 58 60 61 61 60 60 60 59 59 58 60 61 60 58 59 57 51 49 47 44 44 42 41 43 41 41 40 40 39 35 34 34 36 49 48 47 48 45 49 46 45
52 53 55 59 61 61 60 59 59 60 58 61 61 62 61 58 59 54 50 47 45 43 42 41 40 39 40 39 39 38 37 38 38 38 44 54 53 48 46 45 45 44 43
51 52 55 57 61 60 59 59 59 60 60 60 60 61 61 58 57 51 48 45 43 41 40 39 39 38 38 38 38 38 38 36 37 43 46 48 52 49 46 43 42 41 41
51 53 56 58 61 61 59 59 58 58 59 59 59 61 62 59 57 53 48 45 42 42 43 42 41 41 38 36 38 38 37 37 36 39 43 45 44 50 46 44 41 39 39
52 55 58 59 61 61 60 59 58 59 60 61 61 62 62 59 57 53 48 44 43 43 42 42 40 39 39 38 38 37 38 37 35 36 35 38 39 38 40 42 41 41 40
56 57 60 61 61 60 60 59 61 61 62 62 61 60 59 57 55 52 47 44 45 43 43 41 41 41 39 39 37 39 40 37 35 30 34 35 37 36 34 34 38 37 40
57 58 60 61 61 60 60 60 60 61 61 60 59 58 56 55 52 50 46 46 44 42 43 42 43 42 41 41 35 37 40 39 36 35 36 34 35 37 36 35 35 32 35
58 59 60 60 60 59 57 57 57 58 59 59 57 56 54 52 50 49 44 45 44 43 43 44 43 43 41 42 39 37 38 39 38 35 37 37 35 37 37 35 33 31 29
57 59 59 59 59 58 57 57 57 57 58 57 57 55 53 51 48 47 46 44 43 43 44 44 44 41 42 41 35 34 29 31 35 37 36 36 39 36 36 35 36 34 32
57 58 58 58 58 58 57 56 55 56 55 54 54 54 52 49 47 46 46 44 44 44 43 44 44 42 38 38 39 30 24 21 29 33 37 36 38 38 36 36 36 36 34
56 58 58 58 58 58 57 56 55 55 55 55 55 54 52 49 47 44 44 44 45 44 44 43 40 40 37 32 36 36 37 32 24 24 33 36 37 36 37 35 34 36 34
57 58 59 59 58 58 57 57 57 56 57 54 53 52 52 50 47 44 44 45 45 44 44 41 40 39 36 34 32 34 35 35 36 31 25 30 34 33 32 33 34 34 32
57 58 59 58 57 58 57 57 56 56 55 53 53 52 50 48 47 46 43 44 45 43 41 40 39 38 38 36 36 37 35 31 29 31 30 30 30 30 32 32 33 34 30
Lifted_Index
-4 -4 -4 -4 -4 -3 -3 -2 -2 -1 -1 -0 0 0 1 1 0 -0 -1 -1 -1 -1 -1 -1 -1 -1 -0 0 1 1 1 1 1 2 3 3 3 3 3 3 4 3 3
-4 -4 -4 -4 -4 -3 -2 -2 -2 -1 -0 0 -0 0 1 1 0 -0 -1 -1 -2 -2 -2 -1 -2 -1 -0 1 1 1 1 1 1 2 3 3 3 3 3 3 3 3 3
-4 -4 -4 -4 -3 -3 -2 -2 -1 -1 -0 -0 -0 -0 0 0 -0 -0 -1 -2 -2 -3 -2 -2 -2 -1 0 1 1 1 2 2 2 3 3 4 3 3 3 3 3 3 3
-4 -4 -3 -3 -3 -3 -2 -2 -1 -1 -0 -0 -0 -0 -0 -0 -0 -0 -0 -1 -2 -3 -2 -2 -1 -0 1 1 1 1 2 2 3 3 4 4 4 4 3 3 3 3 3
-4 -3 -3 -3 -3 -3 -2 -2 -1 -1 -1 -1 -1 -1 -0 -0 -0 0 -0 -1 -2 -2 -2 -1 -0 1 1 1 2 2 3 3 4 4 4 4 4 4 4 4 4 4 4
-3 -3 -3 -3 -3 -2 -2 -1 -1 -1 -1 -1 -1 -1 -1 -0 0 0 0 -0 -1 -1 -0 1 2 2 2 2 3 3 4 5 5 4 4 4 4 5 5 5 5 5 5
-2 -2 -2 -2 -2 -2 -1 -1 -0 -0 -1 -1 -1 -1 -0 -0 0 0 -0 -1 -0 0 1 2 2 2 3 3 4 5 5 6 5 5 5 5 5 5 6 7 7 7 7
-2 -2 -1 -1 0 1 0 -0 -0 -1 -1 -0 -0 -0 -0 -0 0 -0 -1 -1 -0 0 1 2 2 3 3 4 6 6 6 6 6 6 6 5 6 6 7 8 8 8 8
-2 -1 0 2 3 4 3 1 -0 -1 -0 -0 -0 -0 -0 -0 -0 -1 -1 -1 -0 0 1 2 3 4 5 6 7 7 7 7 7 7 6 6 6 7 7 8 9 9 8
-2 -1 1 3 4 5 4 1 -0 -0 0 0 0 0 -0 -0 -0 -1 -1 -1 -0 1 2 3 4 5 6 6 8 9 9 8 8 8 7 6 6 7 7 8 9 9 9
-1 -0 1 3 4 5 4 2 1 1 1 1 1 1 0 -0 -0 -0 -0 0 1 2 3 4 5 5 6 7 9 10 11 10 10 9 8 7 7 7 7 8 9 9 9
1 1 2 3 4 5 4 3 2 1 2 2 2 1 -0 -1 -0 0 1 2 3 4 4 4 5 5 5 7 9 11 12 12 12 12 10 9 8 7 7 8 8 9 9
2 2 3 4 4 4 4 3 2 2 2 2 1 0 -1 -1 -0 1 2 3 3 4 4 4 4 5 6 8 11 12 14 14 14 14 12 10 9 8 8 8 8 9 9
2 3 4 4 3 3 3 2 2 2 1 1 -0 -1 -1 -0 1 1 2 3 3 3 3 4 4 5 7 9 12 13 14 14 14 14 12 11 9 8 8 9 9 9 9
3 4 4 3 2 2 2 2 1 1 0 -0 -1 -1 -0 1 1 1 1 2 2 3 3 3 4 5 8 10 12 14 14 14 14 13 11 9 9 8 9 9 9 10 10
3 3 3 2 2 1 1 1 0 0 -0 -0 -1 -1 -0 0 1 1 1 1 2 3 3 4 4 6 9 11 13 14 14 14 14 12 10 9 9 9 9 10 10 10 10
2 2 2 1 0 -0 -0 -0 -0 -0 -0 -0 -1 -1 -1 -0 0 0 1 1 2 3 3 4 5 7 10 11 13 13 14 14 14 13 11 10 10 10 10 11 11 11 11
1 0 -0 -1 -1 -1 -0 0 0 -0 -0 -0 -1 -1 -1 -1 -0 0 1 1 2 3 3 4 6 8 10 11 13 13 13 14 14 13 13 12 11 11 12 12 12 12 12
-0 -1 -2 -2 -2 -1 -0 0 0 0 -0 -0 -1 -1 -1 -1 -0 0 1 1 2 3 4 5 7 8 9 11 12 12 13 13 14 14 13 13 13 13 13 14 14 13 13
-1 -2 -2 -2 -2 -1 -0 1 1 1 0 -0 -1 -1 -1 -1 -0 0 1 2 2 3 4 6 8 8 9 10 10 11 12 12 13 13 13 13 13 14 14 14 14 14 14
-2 -2 -2 -2 -2 -1 -0 1 1 1 0 -1 -1 -1 -1 -0 -0 1 1 2 2 3 5 7 8 8 9 9 9 9 10 11 12 12 12 12 13 13 13 13 14 14 14
-2 -2 -2 -2 -2 -1 -0 1 1 1 0 -1 -1 -1 -1 -0 1 1 2 2 3 4 7 8 8 8 8 8 8 7 7 8 10 11 12 12 12 12 12 13 13 13 13
-1 -1 -2 -2 -2 -2 -1 1 1 1 -0 -1 -1 -1 -0 1 2 2 2 3 4 6 7 8 8 7 7 7 7 6 6 7 8 10 11 11 12 12 12 12 13 13 13
-1 -1 -1 -1 -2 -2 -2 -0 1 1 -0 -1 -1 -1 0 1 2 3 3 4 6 7 7 7 7 7 6 6 7 7 8 8 8 9 11 11 12 12 12 12 13 13 13
-2 -2 -1 -1 -2 -2 -2 -2 -0 0 0 -0 -1 -1 0 1 2 3 4 5 7 7 7 7 7 7 6 6 6 7 9 10 10 11 11 12 12 12 12 13 13 13 13
-2 -2 -2 -2 -2 -2 -2 -2 -1 0 0 -0 -1 -1 -0 1 2 3 4 6 7 7 7 7 7 7 6 6 7 8 9 11 12 12 12 12 12 12 12 12 12 13 13